Wind_Speed
38 37 36 36 35 34 34 35 35 35 34 35 36 37 38 39 40 41 42 43 45 46 48 49 50 52 52 53 55 57 59 60 61 61 61 61 60 60
38 37 36 36 35 34 35 35 35 34 34 35 37 37 38 39 41 41 42 44 45 47 48 49 51 52 53 54 56 58 60 61 61 61 62 61 61 61
37 36 36 35 35 34 34 34 34 34 34 35 36 37 38 39 40 41 43 45 46 47 48 50 51 52 54 56 58 59 60 60 61 62 62 62 61 61
37 37 36 35 35 35 34 33 34 34 34 35 36 37 38 39 40 42 44 45 45 47 48 50 51 53 55 57 58 59 59 60 61 63 62 62 61 60
37 36 36 35 34 34 33 33 34 34 35 36 37 37 38 39 41 42 44 44 45 47 48 50 52 54 56 57 58 59 60 61 62 63 62 61 59 58
36 35 35 34 33 33 33 33 32 33 35 35 36 37 38 40 41 43 43 44 45 47 49 50 52 54 55 57 58 59 60 61 62 62 60 59 57 56
35 34 33 33 33 33 32 32 32 33 35 35 35 37 39 41 42 42 43 44 45 47 49 50 52 54 55 56 58 59 60 61 61 60 58 56 55 54
34 33 33 33 32 32 31 31 32 34 34 35 35 37 39 40 41 42 43 44 45 47 48 50 52 53 54 56 58 59 60 60 60 58 56 55 53 53
34 33 33 33 32 31 31 32 33 34 34 35 36 37 38 39 41 41 42 44 45 46 48 50 51 53 55 57 58 59 59 59 58 56 54 53 52 52
35 34 33 31 31 31 32 32 32 32 33 34 36 37 38 38 39 41 42 43 45 46 48 50 51 54 56 57 58 58 58 57 55 54 53 52 52 51
34 33 32 31 30 31 32 32 31 32 33 34 35 36 37 38 39 41 42 43 44 46 48 50 51 53 55 56 57 57 56 55 54 53 53 52 51 50
35 34 32 31 31 31 31 31 30 31 33 34 35 36 37 38 40 41 42 43 45 46 48 50 52 53 53 54 56 55 54 54 53 53 52 51 49 48
34 33 32 32 32 30 30 30 30 32 32 33 34 35 36 37 39 40 41 43 45 46 48 50 51 52 53 53 54 54 53 53 53 52 50 49 48 47
34 33 33 32 31 30 29 30 30 31 31 32 33 34 36 38 39 40 41 43 45 47 48 50 51 51 51 51 52 53 54 53 52 50 49 48 47 46
33 32 32 31 30 29 29 29 30 30 31 31 33 34 36 37 39 40 41 44 45 46 47 49 50 50 50 51 52 51 52 52 51 49 48 47 46 44
33 32 30 29 29 29 29 29 29 30 30 32 32 33 35 37 38 39 41 43 44 45 47 48 49 49 50 51 52 52 51 51 50 48 46 46 44 43
31 30 28 27 27 29 29 28 28 29 30 31 32 33 35 36 37 39 40 42 43 44 46 47 48 49 51 51 52 52 51 51 49 46 45 45 44 42
29 29 28 27 27 27 27 27 27 29 29 30 31 32 34 36 37 38 39 41 43 44 45 46 47 49 50 52 52 51 50 49 47 46 45 44 42 40
27 26 25 25 25 25 25 27 28 28 28 29 30 32 33 35 36 37 39 40 42 43 44 46 47 47 49 50 50 49 48 48 47 46 44 42 40 38
27 26 25 25 24 24 25 26 27 27 28 29 30 31 32 34 36 37 38 40 41 42 44 45 46 47 48 48 48 47 47 47 46 45 43 41 38 35
27 26 25 24 23 24 26 26 26 27 28 28 29 30 32 34 36 37 38 39 40 42 43 45 46 47 47 47 45 46 46 46 45 43 41 38 35 32
26 25 25 25 25 25 25 25 26 26 27 27 28 30 32 34 35 36 37 38 39 41 42 44 45 46 46 45 44 44 45 46 45 42 39 36 32 28
26 25 25 24 25 25 25 26 25 25 26 27 28 30 32 34 35 35 36 37 38 40 42 43 44 45 44 43 42 43 44 44 43 40 37 33 29 26
Wind_Direction
251 254 257 260 263 266 270 273 276 280 284 288 292 297 299 301 302 305 307 309 310 311 312 313 314 315 316 316 317 317 318 318 318 318 317 316 315 314
251 253 256 260 263 267 271 275 278 282 285 289 293 297 299 301 303 305 307 309 310 311 312 313 314 315 316 316 317 317 318 318 318 319 318 317 316 315
249 252 256 259 263 267 272 276 279 283 286 290 294 297 299 301 303 305 307 309 310 311 312 313 314 315 316 316 317 318 318 319 320 320 319 318 317 316
248 252 256 261 265 268 272 276 279 283 287 290 294 297 300 302 304 306 308 309 310 311 312 314 315 315 316 317 318 319 320 320 321 321 320 319 318 317
249 253 258 261 266 268 271 276 279 283 288 291 294 297 300 302 305 307 308 310 311 312 313 314 315 316 317 319 320 321 321 321 322 322 321 320 319 319
250 254 257 261 265 269 272 276 279 284 288 293 295 298 301 304 305 307 308 310 311 313 314 315 316 317 318 320 320 321 322 322 322 323 322 322 322 321
249 252 256 261 265 269 272 275 279 284 289 293 296 299 302 304 305 307 309 310 312 314 315 316 317 318 320 321 322 322 323 323 324 324 324 324 323 323
249 253 258 261 264 268 271 275 280 286 290 293 296 300 302 304 306 308 309 311 312 313 315 317 318 320 321 322 322 323 324 325 325 325 325 325 324 324
249 253 257 260 263 267 272 277 282 287 290 293 297 301 302 305 306 309 311 312 314 315 316 318 320 321 322 322 323 324 325 326 326 326 326 326 325 325
250 253 257 261 265 270 274 278 282 287 289 294 297 300 302 305 307 310 312 313 315 316 317 319 321 322 322 323 324 325 326 327 327 327 327 327 326 326
249 252 255 261 265 270 274 277 281 285 289 294 297 299 302 305 309 312 313 314 316 317 318 320 322 323 323 324 325 326 327 328 328 328 327 327 327 327
248 252 256 260 265 270 273 277 280 285 289 293 296 299 304 307 310 312 313 315 317 318 319 321 322 324 324 325 326 327 328 328 328 328 327 327 327 328
248 252 256 259 264 268 271 275 280 285 289 293 296 301 305 308 311 313 314 316 317 319 320 322 323 324 325 326 327 328 329 329 329 328 328 328 328 328
248 252 256 259 263 267 271 277 282 286 290 293 297 301 305 309 311 313 315 317 318 319 320 322 324 325 326 327 328 328 329 329 329 328 328 329 329 329
248 252 254 258 262 267 273 279 284 287 290 294 298 302 305 309 312 313 316 318 319 320 322 324 325 326 327 328 329 329 329 330 330 329 329 329 329 329
245 248 251 257 261 267 272 279 283 287 291 296 299 303 307 310 312 313 316 319 320 321 323 325 326 327 329 330 330 330 331 331 331 330 330 329 329 329
242 245 250 256 262 267 273 278 283 287 292 296 300 304 307 310 313 315 318 320 321 323 324 326 327 328 330 331 331 332 332 332 333 332 331 330 330 330
240 246 252 257 263 269 272 277 283 287 292 296 300 304 308 312 314 317 319 321 322 324 325 327 328 329 330 331 332 332 332 333 333 333 332 331 331 331
241 245 251 257 264 269 273 278 283 287 291 295 301 306 310 313 315 318 320 321 323 325 327 328 329 330 331 332 332 333 334 334 334 334 333 333 332 333
242 245 250 255 260 266 274 280 284 287 291 297 302 307 311 314 316 318 319 321 324 326 328 329 331 332 332 333 334 335 336 336 336 336 336 335 335 335
242 244 248 252 259 266 275 280 283 288 293 297 303 307 311 315 317 318 320 322 324 327 328 330 331 333 334 334 335 336 337 337 338 338 338 338 338 338
239 242 247 252 258 266 273 279 285 290 295 299 304 309 313 316 318 319 321 323 326 327 329 330 332 333 335 335 336 337 338 339 340 340 340 341 341 341
235 240 246 252 260 267 273 280 285 290 295 300 305 310 313 316 318 320 322 325 326 328 330 332 333 335 336 336 337 339 340 341 342 342 343 344 345 345
Height
5738 5741 5743 5745 5746 5747 5748 5749 5749 5749 5748 5745 5743 5741 5737 5734 5730 5726 5722 5717 5712 5706 5700 5693 5687 5679 5672 5664 5656 5647 5638 5629 5620 5610 5600 5591 5582 5573
5730 5733 5735 5737 5739 5740 5741 5741 5741 5741 5740 5738 5736 5733 5730 5726 5722 5718 5714 5709 5703 5697 5691 5684 5677 5670 5662 5654 5645 5636 5627 5618 5608 5598 5588 5578 5568 5559
5722 5725 5728 5730 5731 5732 5733 5734 5734 5733 5732 5730 5728 5725 5722 5718 5715 5710 5706 5700 5695 5688 5682 5675 5668 5660 5652 5644 5635 5625 5616 5606 5596 5586 5575 5565 5555 5545
5715 5718 5720 5722 5724 5725 5726 5726 5726 5725 5724 5722 5720 5717 5714 5711 5707 5702 5697 5692 5686 5680 5673 5666 5658 5650 5642 5633 5624 5614 5604 5594 5584 5574 5564 5553 5543 5532
5707 5710 5712 5714 5716 5717 5718 5718 5718 5717 5716 5715 5712 5709 5706 5702 5698 5694 5689 5683 5677 5671 5663 5656 5648 5640 5631 5622 5613 5603 5593 5584 5574 5562 5551 5540 5530 5519
5699 5702 5705 5707 5708 5709 5710 5710 5710 5709 5708 5707 5704 5701 5698 5694 5690 5686 5680 5675 5669 5662 5654 5646 5638 5630 5621 5612 5603 5593 5583 5572 5561 5550 5539 5529 5518 5508
5691 5694 5697 5699 5700 5701 5702 5703 5702 5702 5700 5699 5696 5693 5690 5686 5682 5677 5672 5666 5660 5652 5645 5637 5629 5621 5611 5601 5592 5582 5571 5561 5550 5539 5528 5518 5508 5498
5683 5687 5689 5691 5692 5693 5694 5695 5695 5694 5692 5691 5688 5685 5682 5678 5673 5668 5663 5657 5652 5645 5636 5628 5619 5610 5601 5592 5582 5572 5561 5550 5539 5529 5518 5508 5499 5489
5676 5679 5681 5683 5684 5686 5686 5687 5687 5686 5685 5683 5680 5677 5673 5670 5665 5660 5654 5648 5641 5634 5627 5619 5610 5600 5591 5581 5571 5561 5551 5540 5529 5519 5509 5499 5489 5480
5668 5671 5674 5675 5677 5678 5679 5679 5679 5678 5676 5675 5672 5669 5665 5661 5656 5651 5645 5639 5632 5625 5618 5610 5601 5591 5581 5571 5561 5551 5541 5530 5520 5510 5500 5490 5481 5471
5660 5663 5666 5668 5669 5670 5671 5671 5671 5670 5668 5666 5664 5661 5657 5652 5647 5642 5637 5630 5624 5616 5609 5601 5592 5583 5572 5561 5551 5541 5531 5521 5511 5501 5491 5482 5472 5463
5652 5656 5659 5660 5662 5662 5663 5664 5663 5662 5660 5658 5656 5652 5649 5644 5639 5634 5628 5622 5615 5608 5600 5592 5583 5574 5565 5553 5542 5532 5522 5512 5502 5492 5483 5473 5464 5455
5644 5648 5650 5652 5654 5655 5656 5656 5655 5654 5652 5650 5648 5644 5640 5636 5631 5625 5619 5613 5606 5599 5591 5583 5574 5565 5555 5545 5534 5524 5514 5504 5494 5484 5474 5465 5456 5448
5637 5640 5642 5645 5647 5648 5648 5648 5647 5646 5645 5643 5640 5637 5633 5628 5622 5617 5611 5604 5597 5590 5582 5574 5565 5556 5547 5537 5527 5516 5506 5496 5486 5476 5467 5457 5448 5440
5629 5632 5634 5636 5639 5640 5641 5640 5640 5639 5637 5635 5632 5629 5625 5620 5614 5609 5602 5595 5588 5581 5573 5565 5557 5548 5538 5529 5519 5510 5500 5489 5478 5469 5459 5450 5442 5433
5620 5624 5626 5628 5631 5632 5633 5633 5632 5631 5630 5627 5624 5621 5617 5612 5607 5601 5595 5588 5580 5573 5565 5557 5548 5539 5530 5520 5511 5501 5491 5482 5472 5461 5452 5443 5434 5426
5613 5616 5618 5621 5623 5625 5626 5625 5625 5624 5622 5620 5617 5613 5609 5604 5599 5593 5587 5580 5573 5566 5558 5549 5540 5531 5522 5512 5503 5493 5483 5474 5464 5455 5445 5436 5427 5419
5605 5608 5611 5614 5616 5618 5618 5618 5617 5616 5614 5612 5609 5605 5601 5596 5591 5585 5579 5573 5566 5558 5551 5542 5533 5524 5514 5504 5495 5486 5476 5466 5457 5448 5439 5430 5421 5413
5598 5601 5604 5607 5609 5610 5611 5610 5610 5608 5607 5604 5601 5598 5593 5589 5583 5578 5572 5566 5558 5551 5543 5535 5526 5517 5508 5499 5488 5479 5469 5459 5450 5441 5432 5423 5415 5407
5591 5594 5597 5600 5602 5603 5603 5603 5602 5601 5599 5597 5594 5590 5586 5581 5576 5571 5565 5558 5551 5544 5536 5528 5519 5510 5501 5492 5482 5473 5463 5454 5444 5434 5425 5417 5409 5402
5584 5588 5591 5593 5594 5596 5596 5596 5595 5594 5592 5590 5587 5583 5579 5574 5569 5564 5557 5551 5544 5537 5529 5521 5512 5504 5494 5485 5476 5467 5457 5448 5439 5430 5421 5413 5405 5398
5578 5581 5584 5586 5588 5589 5589 5588 5588 5587 5585 5582 5579 5576 5572 5567 5562 5556 5550 5544 5537 5530 5523 5514 5506 5497 5488 5479 5470 5461 5452 5443 5433 5424 5416 5409 5402 5395
5571 5574 5577 5579 5580 5581 5582 5582 5581 5579 5578 5575 5572 5569 5565 5560 5555 5549 5543 5537 5531 5524 5516 5508 5500 5491 5482 5474 5465 5457 5448 5439 5429 5421 5413 5405 5399 5393